Sidney, NE

10:45 PM MDT on June 26, 2017 (GMT -0600)
Sidney Municipal

Weather History for KSNY - May, 2013

Change the Weather History Date:

Sunday, May 5, 2013

  Actual Average Record
Temperature  
Mean Temperature 42 °F 54 °F  
Max Temperature 62 °F 69 °F 92 °F (2004)
Min Temperature 22 °F 40 °F 22 °F (2013)
Degree Days  
Heating Degree Days 23 11  
Month to date heating degree days 138 58  
Since 1 July heating degree days 6488 5970  
Cooling Degree Days 0 0  
Month to date cooling degree days 0 0  
Year to date cooling degree days 0 1  
Moisture  
Dew Point 22 °F    
Average Humidity 52    
Maximum Humidity 81    
Minimum Humidity 22    
Precipitation  
Precipitation 0.00 in 0.11 in 1.30 in (1968)
Month to date precipitation 0.17 0.52  
Year to date precipitation 2.35 4.19  
Sea Level Pressure  
Sea Level Pressure 30.20 in    
Wind  
Wind Speed 5 mph (South)    
Max Wind Speed 12 mph    
Max Gust Speed 18 mph    
Visibility 10 miles    
Events      
T = Trace of Precipitation, MM = Missing Value Source: NWS Daily Summary

Daily Weather History Graph

Daily Weather History Graph

Search for Another Location

Airport or City:

Trip Planner

Search our weather history database for the weather conditions in past years. The results will help you decide how hot, cold, wet, or windy it might be!

Date:

Astronomy

May. 05, 2013 Rise Set
Actual Time 5:44 AM MDT 7:53 PM MDT
Civil Twilight 5:14 AM MDT 8:23 PM MDT
Nautical Twilight 4:36 AM MDT 9:01 PM MDT
Astronomical Twilight 3:56 AM MDT 9:42 PM MDT
Moon 3:18 AM MDT (5/5) 3:53 PM MDT (5/5)
Length of Visible Light 15h 09m
Length of Day
14h 09m
Waning Crescent, 17% of the Moon is Illuminated
May 5
Waning Crescent
May 9
New
May 17
First Quarter
May 24
Full
May 31
Last Quarter

Hourly Weather History & Observations

Time (MDT) Temp. Windchill Dew Point Humidity Pressure Visibility Wind Dir Wind Speed Gust Speed Precip Events Conditions
12:53 AM 30.9 °F 26.2 °F 19.0 °F 61% 30.26 in 10.0 mi ENE 4.6 mph - N/A   Clear
1:53 AM 24.1 °F 19.7 °F 18.0 °F 77% 30.28 in 10.0 mi WSW 3.5 mph - N/A   Clear
2:53 AM 24.1 °F 19.7 °F 18.0 °F 77% 30.26 in 10.0 mi WNW 3.5 mph - N/A   Clear
3:53 AM 25.0 °F 15.5 °F 19.0 °F 78% 30.25 in 10.0 mi NW 9.2 mph - N/A   Clear
4:53 AM 25.0 °F 19.3 °F 18.0 °F 75% 30.24 in 10.0 mi NW 4.6 mph - N/A   Clear
5:53 AM 24.1 °F 16.0 °F 18.0 °F 77% 30.26 in 10.0 mi WNW 6.9 mph - N/A   Clear
6:53 AM 32.0 °F - 24.1 °F 73% 30.25 in 10.0 mi Calm Calm - N/A   Clear
7:53 AM 41.0 °F 39.0 °F 25.0 °F 53% 30.26 in 10.0 mi WNW 3.5 mph - N/A   Clear
8:53 AM 46.9 °F - 21.9 °F 37% 30.24 in 10.0 mi Calm Calm - N/A   Clear
9:53 AM 50.0 °F - 17.1 °F 27% 30.23 in 10.0 mi Calm Calm - N/A   Clear
10:53 AM 53.1 °F - 17.1 °F 24% 30.24 in 10.0 mi ENE 6.9 mph - N/A   Clear
12:53 PM 57.0 °F - 21.0 °F 25% 30.20 in 10.0 mi Variable 3.5 mph - N/A   Clear
1:53 PM 59.0 °F - 21.0 °F 23% 30.19 in 10.0 mi East 6.9 mph - N/A   Clear
2:53 PM 59.0 °F - 21.0 °F 23% 30.17 in 10.0 mi Calm Calm - N/A   Clear
3:53 PM 61.0 °F - 21.9 °F 22% 30.14 in 10.0 mi Variable 4.6 mph - N/A   Clear
4:53 PM 60.1 °F - 23.0 °F 24% 30.13 in 10.0 mi South 5.8 mph - N/A   Clear
5:53 PM 60.1 °F - 23.0 °F 24% 30.14 in 10.0 mi SSE 6.9 mph - N/A   Clear
6:53 PM 57.0 °F - 25.0 °F 29% 30.12 in 10.0 mi SE 5.8 mph - N/A   Clear
7:53 PM 46.9 °F - 28.0 °F 48% 30.14 in 10.0 mi SE 6.9 mph - N/A   Clear
8:53 PM 44.1 °F 39.5 °F 27.0 °F 51% 30.13 in 10.0 mi SSE 8.1 mph - N/A   Clear
9:53 PM 42.1 °F 38.4 °F 28.0 °F 58% 30.14 in 10.0 mi SSE 5.8 mph - N/A   Clear
10:53 PM 42.1 °F 38.4 °F 28.9 °F 60% 30.11 in 10.0 mi South 5.8 mph - N/A   Clear
11:53 PM 42.1 °F 38.4 °F 28.0 °F 58% 30.11 in 10.0 mi SSE 5.8 mph - N/A   Partly Cloudy